Regional Weather Roundup
Issued by NWS Cleveland, OH

Home | Current Version | Previous Version | Text Only | Print | Product List | Glossary Off
Versions: 1 2 3 4 5 6 7 8 9 10 11 12 13 14 15 16 17 18 19 20 21 22 23 24 25 26 27 28 29 30 31 32 33 34 35 36 37 38 39 40 41 42 43 44 45 46 47 48 49 50

000
ASUS41 KCLE 011902
RWRCLE
OHIO REGIONAL WEATHER ROUNDUP
NATIONAL WEATHER SERVICE CLEVELAND, OH
300 PM EDT WED OCT 01 2014

NOTE: "FAIR" INDICATES FEW OR NO CLOUDS BELOW 12,000 FEET WITH NO
SIGNIFICANT WEATHER AND/OR OBSTRUCTIONS TO VISIBILITY.

OHZ001>008-015>018-024>027-034-035-043-044-012000-
   NORTHWEST OHIO

CITY           SKY/WX    TMP DP  RH WIND       PRES   REMARKS
DEFIANCE       PTSUNNY   65  49  56 E9        30.04F
FINDLAY        MOSUNNY   67  50  54 S5        30.03F
TOLEDO EXPRESS PTSUNNY   64  51  62 CALM      30.03F
TOLEDO EXEC    CLOUDY    66  53  63 VRB5      30.04F
LIMA           MOSUNNY   67  50  54 N3        30.03F
$$

OHZ009>014-019>023-028>033-038-089-012000-
   NORTHEAST OHIO

CITY           SKY/WX    TMP DP  RH WIND       PRES   REMARKS
CLE-HOPKINS    PTSUNNY   68  58  70 NW7       30.04F
CLE-LAKEFRONT  PTSUNNY   66  59  78 NW7       30.02F
CUY CO. ARPT   PTSUNNY   66  63  88 N9        30.03F
LORAIN-ELYRIA  CLOUDY    69  57  65 N9        30.04S
ASHTABULA      PTSUNNY   70  58  65 NE5       30.03F
AKRON-CANTON   PTSUNNY   65  54  67 S3        30.03F
WOOSTER        CLOUDY    66  55  67 CALM      30.04F
MANSFIELD      MOSUNNY   65  52  62 E5        30.03F
YOUNGSTOWN     PTSUNNY   64  57  78 VRB3      30.03F
$$

OHZ042-051>053-060>062-070>072-077>081-012000-
  SOUTHWEST OHIO

CITY           SKY/WX    TMP DP  RH WIND       PRES   REMARKS
CINC-COVINGTON MOSUNNY   74  54  49 CALM      30.00F
CINC-LUNKEN    SUNNY     72  53  51 CALM      30.00F
HAMILTON       SUNNY     69  53  56 VRB3      30.02F
DAYTON         MOSUNNY   64  52  64 SE5       30.04F
WRIGHT-PAT AFB MOSUNNY   63  53  72 NE6       30.03F
DAYTON GENERAL MOSUNNY   62  54  74 E6        30.03F
WILMINGTON     SUNNY     64  50  60 NE3       30.03F
$$

OHZ036-037-039>041-045>050-054>059-063>069-073>076-082>088-012000-
  CENTRAL AND SOUTHEAST OHIO

CITY           SKY/WX    TMP DP  RH WIND       PRES   REMARKS
COLUMBUS       MOSUNNY   69  49  48 N6        30.02F
OSU AIRPORT    SUNNY     67  50  54 CALM      30.02F
BOLTON FIELD   SUNNY     66  52  59 CALM      30.03F
RICKENBACK AFB SUNNY     67  50  53 N3        30.01F
NEWARK         PTSUNNY   63  51  65 VRB5      30.03F
MARION         MOSUNNY   67  50  54 CALM      30.03F
LANCASTER      SUNNY     68  50  52 VRB3      30.02F
ZANESVILLE     SUNNY     66  50  56 CALM      30.02F
NEW PHILLY     CLOUDY    65  56  72 VRB3      30.03F
$$



USA.gov is the U.S. government's official web portal to all federal, state and local government web resources and services.